| time (UTC) | temp C | wind direction | speed KPH | gust KPH | rain 1hr cm | rain 24hr cm | rain mn cm | humidity % | barometer mb |
| 20260507211600 | 15 | 32 | 9.7 | 22.5 | 0.00 | 0.38 | 0.05 | 33 | 1004.4 |
| 20260507210054 | 16 | 37 | 8.0 | 25.7 | 0.00 | 0.38 | 0.05 | 32 | 1004.3 |
| 20260507204553 | 16 | 11 | 12.9 | 25.7 | 0.00 | 0.56 | 0.05 | 33 | 1004.2 |
| 20260507203052 | 15 | 44 | 9.7 | 17.7 | 0.00 | 0.56 | 0.05 | 33 | 1004.2 |
| 20260507201552 | 15 | 319 | 8.0 | 20.9 | 0.00 | 0.56 | 0.05 | 38 | 1004.2 |
| 20260507200052 | 15 | 14 | 6.4 | 25.7 | 0.00 | 0.56 | 0.05 | 35 | 1004.2 |
| 20260507194551 | 16 | 320 | 6.4 | 25.7 | 0.00 | 0.64 | 0.05 | 35 | 1004.4 |
| 20260507193059 | 16 | 360 | 12.9 | 30.6 | 0.00 | 0.64 | 0.05 | 33 | 1004.3 |
| 20260507191548 | 15 | 320 | 9.7 | 25.7 | 0.00 | 0.64 | 0.05 | 37 | 1004.4 |
| 20260507190052 | 13 | 343 | 14.5 | 35.4 | 0.00 | 0.64 | 0.05 | 36 | 1004.7 |
| 20260507184550 | 15 | 34 | 8.0 | 27.4 | 0.00 | 0.76 | 0.05 | 38 | 1004.6 |
| 20260507183050 | 15 | 37 | 11.3 | 29.0 | 0.00 | 0.76 | 0.05 | 35 | 1004.8 |
| 20260507181553 | 15 | 270 | 11.3 | 29.0 | 0.00 | 0.76 | 0.05 | 37 | 1005.0 |
| 20260507180052 | 15 | 302 | 12.9 | 35.4 | 0.00 | 0.76 | 0.05 | 37 | 1005.0 |
| 20260507174630 | 15 | 15 | 8.0 | 29.0 | 0.00 | 0.81 | 0.05 | 41 | 1005.2 |
| 20260507173055 | 14 | 324 | 9.7 | 29.0 | 0.00 | 0.81 | 0.05 | 47 | 1005.3 |
| 20260507171610 | 13 | 229 | 14.5 | 29.0 | 0.00 | 0.81 | 0.05 | 48 | 1005.4 |
| 20260507170054 | 13 | 338 | 6.4 | 22.5 | 0.00 | 0.81 | 0.05 | 58 | 1005.4 |
| 20260507164554 | 13 | 191 | 8.0 | 27.4 | 0.00 | 0.81 | 0.05 | 58 | 1005.5 |
| 20260507163055 | 13 | 251 | 9.7 | 32.2 | 0.00 | 0.81 | 0.05 | 54 | 1005.8 |
| 20260507161557 | 15 | 304 | 11.3 | 25.7 | 0.00 | 0.81 | 0.05 | 52 | 1005.6 |
| 20260507160114 | 15 | 269 | 9.7 | 25.7 | 0.00 | 0.81 | 0.05 | 56 | 1005.6 |
| 20260507154554 | 15 | 269 | 9.7 | 29.0 | 0.00 | 0.81 | 0.05 | 55 | 1005.7 |
| 20260507153052 | 15 | 234 | 8.0 | 25.7 | 0.00 | 0.81 | 0.05 | 54 | 1005.7 |
| 20260507151558 | 14 | 5 | 8.0 | 24.1 | 0.00 | 0.81 | 0.05 | 58 | 1005.9 |
| 20260507150051 | 13 | 213 | 8.0 | 20.9 | 0.00 | 0.81 | 0.05 | 57 | 1006.0 |
| 20260507144555 | 13 | 253 | 4.8 | 12.9 | 0.00 | 0.81 | 0.05 | 59 | 1006.0 |
| 20260507143058 | 13 | 334 | 4.8 | 25.7 | 0.00 | 0.81 | 0.05 | 58 | 1006.0 |
| 20260507141602 | 13 | 323 | 6.4 | 19.3 | 0.00 | 0.81 | 0.05 | 60 | 1006.0 |
| 20260507140109 | 12 | 240 | 4.8 | 12.9 | 0.00 | 0.81 | 0.05 | 65 | 1006.1 |
| 20260507134555 | 12 | 0 | 0.0 | 14.5 | 0.00 | 0.81 | 0.05 | 68 | 1006.1 |
| 20260507133059 | 11 | 0 | 3.2 | 11.3 | 0.00 | 0.81 | 0.05 | 74 | 1006.2 |
| 20260507131613 | 10 | 351 | 1.6 | 4.8 | 0.00 | 0.81 | 0.05 | 77 | 1006.4 |
| 20260507130049 | 10 | 0 | 0.0 | 9.7 | 0.00 | 0.81 | 0.05 | 82 | 1006.4 |
| 20260507124554 | 8 | 0 | 1.6 | 9.7 | 0.00 | 0.81 | 0.05 | 85 | 1006.4 |
| 20260507123047 | 8 | 0 | 0.0 | 4.8 | 0.00 | 0.81 | 0.05 | 88 | 1006.5 |
| 20260507121556 | 7 | 0 | 0.0 | 0.0 | 0.00 | 0.81 | 0.05 | 89 | 1006.7 |
| 20260507120047 | 7 | 0 | 0.0 | 0.0 | 0.00 | 0.81 | 0.05 | 90 | 1006.5 |
| 20260507114548 | 6 | 0 | 0.0 | 0.0 | 0.00 | 0.81 | 0.05 | 90 | 1006.4 |
| 20260507113125 | 6 | 0 | 0.0 | 0.0 | 0.00 | 0.81 | 0.05 | 90 | 1006.4 |
| 20260507111549 | 5 | 0 | 0.0 | 0.0 | 0.00 | 0.81 | 0.05 | 90 | 1006.7 |
| 20260507110051 | 5 | 0 | 0.0 | 0.0 | 0.00 | 0.81 | 0.05 | 90 | 1006.6 |
| 20260507104558 | 5 | 0 | 0.0 | 0.0 | 0.00 | 0.81 | 0.05 | 90 | 1006.8 |
| 20260507103050 | 5 | 0 | 0.0 | 0.0 | 0.00 | 0.81 | 0.05 | 90 | 1006.6 |
| 20260507101554 | 5 | 0 | 0.0 | 0.0 | 0.00 | 0.81 | 0.05 | 90 | 1006.8 |
| 20260507100057 | 6 | 0 | 0.0 | 0.0 | 0.00 | 0.81 | 0.05 | 89 | 1006.7 |
| 20260507094604 | 6 | 0 | 0.0 | 0.0 | 0.00 | 0.81 | 0.05 | 89 | 1006.7 |
| 20260507093050 | 6 | 0 | 0.0 | 0.0 | 0.00 | 0.81 | 0.05 | 89 | 1006.5 |
| 20260507091549 | 6 | 0 | 0.0 | 4.8 | 0.00 | 0.81 | 0.05 | 89 | 1006.4 |
| 20260507090052 | 7 | 344 | 3.2 | 6.4 | 0.00 | 0.81 | 0.05 | 89 | 1006.2 |
| 20260507084557 | 7 | 360 | 1.6 | 8.0 | 0.00 | 0.81 | 0.05 | 89 | 1006.2 |
| 20260507083052 | 7 | 27 | 3.2 | 8.0 | 0.00 | 0.81 | 0.05 | 89 | 1006.6 |
| 20260507081550 | 7 | 360 | 4.8 | 12.9 | 0.00 | 0.81 | 0.05 | 88 | 1006.4 |
| 20260507080055 | 7 | 52 | 4.8 | 12.9 | 0.00 | 0.81 | 0.05 | 88 | 1005.9 |
| 20260507074551 | 7 | 31 | 6.4 | 17.7 | 0.00 | 0.81 | 0.05 | 88 | 1005.8 |
| 20260507073053 | 7 | 41 | 4.8 | 19.3 | 0.00 | 0.81 | 0.05 | 89 | 1005.8 |
| 20260507071549 | 7 | 44 | 4.8 | 14.5 | 0.00 | 0.81 | 0.05 | 89 | 1005.9 |
| 20260507070105 | 8 | 40 | 1.6 | 11.3 | 0.00 | 0.81 | 0.05 | 89 | 1006.1 |
| 20260507064553 | 8 | 39 | 1.6 | 11.3 | 0.00 | 0.81 | 0.05 | 89 | 1005.7 |
| 20260507063053 | 8 | 24 | 3.2 | 11.3 | 0.00 | 0.81 | 0.05 | 89 | 1005.4 |
| 20260507061549 | 8 | 38 | 1.6 | 14.5 | 0.00 | 0.81 | 0.05 | 89 | 1005.3 |
| 20260507060053 | 8 | 22 | 3.2 | 8.0 | 0.00 | 0.81 | 0.05 | 89 | 1004.9 |
| 20260507054558 | 8 | 360 | 4.8 | 11.3 | 0.00 | 0.81 | 0.05 | 89 | 1005.0 |
| 20260507053047 | 8 | 14 | 1.6 | 6.4 | 0.00 | 0.81 | 0.05 | 89 | 1005.0 |
| 20260507051550 | 9 | 11 | 0.0 | 8.0 | 0.03 | 0.81 | 0.05 | 89 | 1004.8 |
| 20260507050105 | 9 | 21 | 3.2 | 9.7 | 0.05 | 0.81 | 0.05 | 89 | 1004.7 |
| 20260507044555 | 10 | 34 | 3.2 | 12.9 | 0.08 | 0.81 | 0.05 | 89 | 1004.7 |
| 20260507043051 | 10 | 18 | 6.4 | 14.5 | 0.08 | 0.81 | 0.05 | 89 | 1004.9 |
| 20260507041550 | 10 | 59 | 4.8 | 16.1 | 0.08 | 0.79 | 0.03 | 89 | 1004.8 |
| 20260507040058 | 11 | 64 | 8.0 | 16.1 | 0.05 | 0.76 | 0.00 | 89 | 1004.9 |
| 20260507034550 | 11 | 35 | 4.8 | 11.3 | 0.05 | 0.74 | 0.74 | 89 | 1004.7 |
| 20260507033050 | 12 | 351 | 4.8 | 14.5 | 0.08 | 0.71 | 0.71 | 89 | 1004.9 |
| 20260507031548 | 12 | 5 | 4.8 | 14.5 | 0.08 | 0.71 | 0.71 | 88 | 1004.4 |
| 20260507030052 | 13 | 360 | 3.2 | 9.7 | 0.08 | 0.71 | 0.71 | 88 | 1004.3 |
| 20260507024549 | 13 | 20 | 1.6 | 16.1 | 0.08 | 0.69 | 0.69 | 88 | 1004.0 |
| 20260507023057 | 14 | 0 | 0.0 | 0.0 | 0.03 | 0.64 | 0.64 | 89 | 1003.7 |
| 20260507021605 | 14 | 0 | 0.0 | 3.2 | 0.03 | 0.64 | 0.64 | 88 | 1003.8 |
| 20260507020057 | 14 | 0 | 0.0 | 6.4 | 0.00 | 0.61 | 0.61 | 88 | 1003.8 |
| 20260507014557 | 14 | 0 | 0.0 | 0.0 | 0.00 | 0.61 | 0.61 | 88 | 1003.7 |
| 20260507013054 | 14 | 171 | 1.6 | 8.0 | 0.00 | 0.61 | 0.61 | 88 | 1003.6 |
| 20260507011600 | 14 | 0 | 0.0 | 4.8 | 0.00 | 0.61 | 0.61 | 88 | 1003.9 |
| 20260507010055 | 14 | 0 | 0.0 | 8.0 | 0.00 | 0.61 | 0.61 | 88 | 1003.6 |
| 20260507004600 | 14 | 179 | 0.0 | 6.4 | 0.00 | 0.61 | 0.61 | 88 | 1003.7 |
| 20260507003056 | 14 | 174 | 1.6 | 14.5 | 0.00 | 0.61 | 0.61 | 88 | 1003.8 |
| 20260507001606 | 15 | 207 | 3.2 | 14.5 | 0.00 | 0.61 | 0.61 | 88 | 1003.5 |
| 20260507000057 | 15 | 183 | 4.8 | 19.3 | 0.03 | 0.61 | 0.61 | 88 | 1003.2 |
| 20260506234615 | 15 | 213 | 6.4 | 14.5 | 0.03 | 0.61 | 0.61 | 88 | 1003.1 |
| 20260506233056 | 15 | 189 | 4.8 | 17.7 | 0.03 | 0.61 | 0.61 | 88 | 1003.1 |
| 20260506231546 | 15 | 189 | 6.4 | 25.7 | 0.05 | 0.61 | 0.61 | 88 | 1003.1 |
| 20260506230056 | 15 | 220 | 4.8 | 19.3 | 0.05 | 0.58 | 0.58 | 88 | 1002.9 |
| 20260506224548 | 15 | 146 | 6.4 | 24.1 | 0.08 | 0.58 | 0.58 | 88 | 1003.1 |
| 20260506223056 | 15 | 160 | 4.8 | 14.5 | 0.13 | 0.58 | 0.58 | 88 | 1003.4 |
| 20260506221555 | 15 | 168 | 3.2 | 16.1 | 0.13 | 0.56 | 0.56 | 87 | 1003.5 |
| 20260506220053 | 15 | 0 | 1.6 | 12.9 | 0.10 | 0.53 | 0.53 | 88 | 1003.7 |
| 20260506214554 | 15 | 0 | 4.8 | 12.9 | 0.08 | 0.51 | 0.51 | 87 | 1004.0 |
| 20260506213055 | 15 | 171 | 6.4 | 16.1 | 0.08 | 0.46 | 0.46 | 87 | 1004.2 |